Back to catalog

DELTA 1 DEB

AlivePO
NORAD 26840·DEBRIS·🇺🇸 United States

Launched Jun 12, 1975 from Vandenberg Space Force Base

Loading…

Next Passes (next 24 hours)

TLE

FreshSource: Space-Track

Epoch: Sep 11, 2026, 03:16 UTC

1 26840U 75052KU  26254.13670250  .00000006  00000-0  15722-3 0  9998
2 26840  99.6994 133.8072 0363439 219.4240 298.9401 12.73397506603940

Track DELTA 1 DEB in real time with AllMySat

Download on the App Store